リニア彗星

C/2010 R1 ( LINEAR )

English version
Home page
Updated on May 7, 2015

---------------------------------------------------------------------

・ プロフィール

発見日 2010年9月4日
発見光度 20.5等
発見者 Lincoln Laboratory Near-Earth Asteroid Research project

・ 写真集

・ 軌道要素

Epoch 2012 June 2.0 TT = JDT 2456080.5
T 2012 May 18.89829 TT                                  MPC
q   5.6214132            (2000.0)            P               Q
z  -0.0006506      Peri.  114.49634     -0.63355989     -0.76579127
 +/-0.0000005      Node   343.64937     -0.77180824     +0.63550707
e   1.0036574      Incl.  156.93341     +0.05398057     +0.09846058
From 1360 observations 2010 Sept. 4-2014 Mar. 20, mean residual 0".5.

・ 光度変化

        m1 = 2.0 + 5 logΔ + 15.0 log r

---------------------------------------------------------------------

軌道要素はM.P.E.C. 2014-J58に掲載されたものです。
光度グラフはComet for Windowsで作成したものです。

---------------------------------------------------------------------

Copyright(C) Seiichi Yoshida (comet@aerith.net). All rights reserved.